Weather History for St. Thomas, VI

Change the Weather History Date:

Saturday, March 23, 2013

  Actual Average Record
Temperature  
Mean Temperature 81 °F 80 °F  
Max Temperature 86 °F 86 °F 92 °F (1994)
Min Temperature 76 °F 73 °F 68 °F (2000)
Degree Days  
Heating Degree Days 0 0  
Month to date heating degree days 0 0  
Since 1 July heating degree days 0 0  
Cooling Degree Days 16 15  
Month to date cooling degree days 304 325  
Year to date cooling degree days 1106 1139  
Growing Degree Days 30 (Base 50)    
Moisture  
Dew Point 72 °F    
Average Humidity 74    
Maximum Humidity 91    
Minimum Humidity 54    
Precipitation  
Precipitation 0.00 in 0.05 in 1.33 in (2004)
Month to date precipitation 0.62 1.02  
Year to date precipitation 1.17 4.83  
Sea Level Pressure  
Sea Level Pressure 30.02 in    
Wind  
Wind Speed 7 mph (East)    
Max Wind Speed 14 mph    
Max Gust Speed 20 mph    
Visibility 10 miles    
Events      
T = Trace of Precipitation, MM = Missing Value Source: NWS Daily Summary

Daily Weather History Graph

Daily Weather History Graph

Search for Another Location

Airport:

Trip Planner

Search our weather history database for the weather conditions in past years. The results will help you decide how hot, cold, wet, or windy it might be!

Date:

Astronomy

Mar. 23, 2013 Rise Set
Actual Time 6:21 AM AST 6:31 PM AST
Civil Twilight 5:59 AM AST 6:53 PM AST
Nautical Twilight 5:34 AM AST 7:18 PM AST
Astronomical Twilight 5:08 AM AST 7:44 PM AST
Moon 3:19 PM AST 3:26 AM AST
Length of Visible Light 12h 53m
Length of Day
12h 10m
Waxing Gibbous, 85% of the Moon is Illuminated
Mar 23
Waxing Gibbous
Mar 27
Full
Apr 3
Last Quarter
Apr 10
New
Apr 18
First Quarter

Hourly Weather History & Observations

Time (AST) Temp. Heat Index Dew Point Humidity Pressure Visibility Wind Dir Wind Speed Gust Speed Precip Events Conditions
12:53 AM 77.0 °F - 73.0 °F 88% 30.01 in 10.0 mi East 6.9 mph - N/A   Clear
1:53 AM 77.0 °F - 73.0 °F 88% 29.99 in 10.0 mi East 4.6 mph - N/A   Clear
4:53 AM 77.0 °F - 73.0 °F 88% 30.00 in 10.0 mi East 6.9 mph - N/A   Clear
5:53 AM 75.9 °F - 73.0 °F 91% 30.02 in 10.0 mi East 4.6 mph - N/A   Clear
6:53 AM 77.0 °F - 73.0 °F 88% 30.03 in 10.0 mi East 6.9 mph - N/A   Clear
7:53 AM 81.0 °F 85.2 °F 72.0 °F 74% 30.05 in 10.0 mi ENE 5.8 mph - N/A   Clear
8:53 AM 82.0 °F 86.3 °F 71.1 °F 69% 30.07 in 10.0 mi East 6.9 mph - N/A   Scattered Clouds
9:15 AM 82.4 °F 87.2 °F 71.6 °F 70% 30.07 in 10.0 mi East 6.9 mph - N/A   Mostly Cloudy
9:48 AM 84.2 °F 89.6 °F 71.6 °F 66% 30.07 in 10.0 mi SE 8.1 mph - N/A   Scattered Clouds
9:53 AM 84.9 °F 89.4 °F 70.0 °F 61% 30.07 in 10.0 mi ESE 9.2 mph - N/A   Partly Cloudy
10:53 AM 82.9 °F 88.8 °F 73.0 °F 72% 30.07 in 10.0 mi SE 11.5 mph - N/A   Partly Cloudy
11:53 AM 82.0 °F 86.3 °F 71.1 °F 69% 30.05 in 10.0 mi East 9.2 mph 16.1 mph N/A   Scattered Clouds
12:53 PM 82.9 °F 87.0 °F 70.0 °F 65% 30.03 in 10.0 mi NE 9.2 mph - N/A   Scattered Clouds
1:30 PM 82.4 °F 87.2 °F 71.6 °F 70% 30.01 in 10.0 mi NE 8.1 mph - N/A   Mostly Cloudy
1:38 PM 82.4 °F 87.2 °F 71.6 °F 70% 30.00 in 10.0 mi ENE 8.1 mph 19.6 mph N/A   Mostly Cloudy
1:53 PM 84.0 °F 88.4 °F 70.0 °F 63% 30.00 in 10.0 mi ENE 10.4 mph - N/A   Mostly Cloudy
2:53 PM 82.9 °F 87.5 °F 71.1 °F 67% 29.98 in 10.0 mi Variable 6.9 mph - N/A   Overcast
3:53 PM 84.0 °F 89.0 °F 71.1 °F 65% 29.97 in 10.0 mi East 8.1 mph - N/A   Mostly Cloudy
4:53 PM 82.9 °F 87.5 °F 71.1 °F 67% 29.97 in 10.0 mi East 5.8 mph - N/A   Partly Cloudy
5:53 PM 82.0 °F 86.7 °F 72.0 °F 71% 29.98 in 10.0 mi SE 5.8 mph - N/A   Partly Cloudy
6:45 PM 80.6 °F 85.4 °F 73.4 °F 79% 29.99 in 10.0 mi SE 8.1 mph - N/A   Mostly Cloudy
6:53 PM 80.1 °F 84.2 °F 73.0 °F 79% 29.99 in 10.0 mi ESE 5.8 mph - N/A   Mostly Cloudy
7:14 PM 78.8 °F - 71.6 °F 78% 29.99 in 10.0 mi East 5.8 mph - N/A   Scattered Clouds
7:53 PM 78.1 °F - 70.0 °F 76% 30.00 in 10.0 mi East 5.8 mph - N/A   Clear
8:53 PM 78.1 °F - 72.0 °F 81% 30.01 in 10.0 mi East 6.9 mph - N/A   Clear
9:53 PM 77.0 °F - 72.0 °F 84% 30.02 in 10.0 mi East 6.9 mph - N/A   Clear
10:53 PM 77.0 °F - 71.1 °F 82% 30.02 in 10.0 mi East 6.9 mph - N/A   Clear
11:53 PM 75.9 °F - 71.1 °F 85% 30.01 in 10.0 mi East 4.6 mph - N/A   Clear